This demonstration page uses our WeatherBlox Daily Observations layout. Learn more.

Left ArrowRight Arrow

31.84235, -102.49876

Hourly Observations for March 18, 2015

Temp ( °F °C ) Dew Point ( °F °C ) Humidity (%) Winds ( mph kmh ) Pressure ( in mb ) Visibility ( mi km ) Precip ( " mm )
12:53 am 00:53 Cloudy 47 8.3 44 6.7 90 90 NNE 9 15 30.09 1019 10 16 0.00 0.03
1:53 am 01:53 Cloudy 47 8.3 43 6.1 86 86 NNE 10 17 30.08 1019 10 16 0.00 0.00
2:53 am 02:53 Cloudy 46 7.8 43 6.1 89 89 NNE 10 17 30.07 1018 10 16 0.00 0.00
3:53 am 03:53 Cloudy 46 7.8 42 5.6 86 86 NNE 10 17 30.07 1018 10 16 0.00 0.00
4:18 am 04:18 Cloudy 46 7.8 42 5.6 86 86 NNE 10 17 30.12 1020 10 16 0.00 0.00
4:53 am 04:53 Cloudy 45 7.2 42 5.6 90 90 N 9 15 30.06 1018 8 13 0.00 0.00
5:09 am 05:09 Cloudy 45 7.2 42 5.6 90 90 N 9 15 30.12 1020 7 11 0.00 0.00
5:24 am 05:24 Cloudy 45 7.2 42 5.6 90 90 N 8 13 30.12 1020 8 13 0.00 0.00
5:32 am 05:32 Cloudy 45 7.2 42 5.6 90 90 N 10 17 30.12 1020 8 13 0.00 0.00
5:53 am 05:53 Cloudy 45 7.2 42 5.6 90 90 NNE 9 15 30.06 1018 10 16 0.00 0.00
6:53 am 06:53 Cloudy 45 7.2 42 5.6 90 90 NE 7 11 30.07 1018 9 14 0.00 0.00
7:11 am 07:11 Cloudy 45 7.2 42 5.6 90 90 NE 8 13 30.12 1020 8 13 0.00 0.00
7:53 am 07:53 Cloudy with Mist and Fog 45 7.2 42 5.6 90 90 NNE 8 13 30.07 1018 6 10 0.00 0.00
8:06 am 08:06 Cloudy with Mist and Fog 45 7.2 42 5.6 90 90 NNE 8 13 30.12 1020 6 10 0.00 0.00
8:53 am 08:53 Mostly Cloudy 46 7.8 41 5 83 83 NNE 6 9 30.06 1018 8 13 0.00 0.00
9:48 am 09:48 Mostly Cloudy 48 9 43 6 82 82 NNE 3 6 30.09 1019 10 16 0.00 0.00
9:53 am 09:53 Mostly Cloudy 48 8.9 41 5 77 77 Calm 30.08 1019 10 16 0.00 0.00
10:09 am 10:09 Cloudy 48 8.9 42 5.6 80 80 Calm 30.09 1019 10 16 0.00 0.00
10:53 am 10:53 Cloudy 50 10 43 6.1 77 77 VRB 3 6 30.06 1018 10 16 0.00 0.00
11:45 am 11:45 Cloudy 51 10.6 45 7.2 80 80 SW 7 11 30.09 1019 10 16 0.00 0.00
11:53 am 11:53 Cloudy 51 10.6 45 7.2 80 80 SSW 8 13 30.06 1018 10 16 0.00 0.00
12:18 pm 12:18 Cloudy 53 11.7 46 7.8 77 77 SSW 6 9 30.06 1018 10 16 0.00 0.00
12:34 pm 12:34 Cloudy 53 11.7 46 7.8 77 77 SW 7 11 30.06 1018 10 16 0.00 0.00
12:53 pm 12:53 Cloudy 53 11.7 46 7.8 77 77 SW 8 13 30.04 1017 10 16 0.00 0.00
1:53 pm 13:53 Cloudy 55 12.8 47 8.3 74 74 WSW 10 17 30.00 1016 10 16 0.00 0.00
2:53 pm 14:53 Cloudy 57 13.9 47 8.3 69 69 SW 13 20 29.96 1015 10 16 0.00 0.00
3:53 pm 15:53 Mostly Cloudy 59 15 48 8.9 67 67 SW 14 22 29.93 1014 10 16 0.00 0.00
4:06 pm 16:06 Mostly Sunny 60 15.6 49 9.4 67 67 SW 14 22 29.88 1012 10 16 0.00 0.00
4:53 pm 16:53 Sunny 59 15 48 8.9 67 67 SW 10 17 29.89 1012 10 16 0.00 0.00
5:53 pm 17:53 Sunny 62 16.7 49 9.4 62 62 SW 8 13 29.88 1012 10 16 0.00 0.00
6:53 pm 18:53 Sunny 64 17.8 50 10 60 60 WSW 12 19 29.86 1011 10 16 0.00 0.00
7:53 pm 19:53 Sunny 61 16.1 50 10 67 67 SSW 6 9 29.87 1012 10 16 0.00 0.00
8:53 pm 20:53 Clear 58 14.4 49 9.4 72 72 S 7 11 29.88 1012 10 16 0.00 0.00
9:53 pm 21:53 Clear 56 13.3 49 9.4 77 77 SSE 7 11 29.89 1012 10 16 0.00 0.00
10:53 pm 22:53 Clear 55 12.8 49 9.4 80 80 SSE 6 9 29.89 1012 10 16 0.00 0.00
11:53 pm 23:53 Clear 56 13.3 50 10 81 81 S 7 11 29.88 1012 10 16 0.00 0.00

Powered by AerisWeather